FW5282 Weather Reports


Display with metric or nautical units.
time (UTC)temp
F
wind
direction
speed
MPH
gust
MPH
rain 1hr
in
rain 24hr
in
rain mn
in
humidity
%
barometer
mb
20260504212537 57 355 1.0 2.0 0.00 0.43 0.09 94 1009.4
20260504212045 57 355 0.0 2.0 0.00 0.43 0.09 94 1009.4
20260504211531 58 11 0.0 2.0 0.00 0.43 0.09 93 1009.5
20260504211034 58 17 0.0 4.0 0.00 0.43 0.09 93 1009.5
20260504210543 58 19 1.0 4.0 0.00 0.43 0.09 93 1009.5
20260504210036 58 355 1.0 5.0 0.00 0.43 0.09 93 1009.5
20260504205544 58 355 2.0 5.0 0.00 0.43 0.09 93 1009.5
20260504205108 58 360 2.0 4.0 0.00 0.43 0.09 93 1009.4
20260504204533 58 355 2.0 4.0 0.00 0.43 0.09 92 1009.5
20260504204031 58 360 1.0 3.0 0.00 0.43 0.09 92 1009.5
20260504203542 59 17 0.0 2.0 0.00 0.43 0.09 92 1009.5
20260504203041 59 16 0.0 2.0 0.00 0.43 0.09 93 1009.6
20260504202549 59 37 0.0 3.0 0.00 0.43 0.09 92 1009.7
20260504202047 59 23 1.0 4.0 0.00 0.43 0.09 92 1009.7
20260504201535 59 37 2.0 4.0 0.00 0.43 0.09 92 1009.6
20260504201032 59 34 1.0 3.0 0.00 0.43 0.09 91 1009.6
20260504200537 59 42 1.0 2.0 0.00 0.43 0.09 91 1009.6
20260504200034 60 44 0.0 3.0 0.00 0.43 0.09 91 1009.6
20260504195547 60 44 2.0 5.0 0.00 0.43 0.09 91 1009.6
20260504195032 60 28 2.0 6.0 0.00 0.43 0.09 90 1009.6
20260504194607 60 44 3.0 6.0 0.00 0.43 0.09 90 1009.5
20260504194049 60 44 2.0 6.0 0.00 0.43 0.09 89 1009.5
20260504193534 60 53 2.0 5.0 0.00 0.43 0.09 88 1009.4
20260504193036 60 42 2.0 4.0 0.00 0.43 0.09 88 1009.4
20260504192539 60 36 3.0 4.0 0.00 0.43 0.09 88 1009.2
20260504192106 61 51 3.0 4.0 0.00 0.43 0.09 88 1009.2
20260504191529 61 17 2.0 5.0 0.00 0.43 0.09 87 1009.2
20260504191035 61 27 3.0 4.0 0.00 0.43 0.09 87 1009.2
20260504190608 61 34 2.0 4.0 0.00 0.43 0.09 87 1009.3
20260504190040 61 38 2.0 4.0 0.00 0.43 0.09 87 1009.3
20260504185607 61 49 3.0 4.0 0.00 0.43 0.09 87 1009.3
20260504185038 62 49 1.0 4.0 0.00 0.43 0.09 87 1009.4
20260504184541 62 48 2.0 4.0 0.00 0.43 0.09 87 1009.3
20260504184033 62 53 2.0 3.0 0.00 0.43 0.09 86 1009.2
20260504183606 62 35 2.0 3.0 0.00 0.43 0.09 86 1009.3
20260504183054 62 37 2.0 3.0 0.00 0.43 0.09 85 1009.2
20260504182541 62 41 1.0 3.0 0.00 0.43 0.09 85 1009.4
20260504182100 62 49 1.0 4.0 0.00 0.43 0.09 85 1009.3
20260504181543 63 34 2.0 4.0 0.00 0.43 0.09 85 1009.3
20260504181053 63 40 1.0 4.0 0.00 0.43 0.09 84 1009.3
20260504180539 63 42 2.0 3.0 0.00 0.43 0.09 85 1009.2
20260504180033 63 38 2.0 3.0 0.00 0.43 0.09 84 1009.1
20260504175552 63 40 1.0 4.0 0.00 0.43 0.09 84 1009.1
20260504175038 63 15 2.0 4.0 0.00 0.43 0.09 83 1009.0
20260504174545 63 5 3.0 4.0 0.00 0.43 0.09 83 1008.9
20260504174035 63 39 2.0 3.0 0.00 0.43 0.09 82 1008.9
20260504173034 64 75 2.0 5.0 0.00 0.43 0.09 80 1008.9
20260504172545 64 11 2.0 4.0 0.00 0.43 0.09 82 1008.9
20260504172035 64 46 1.0 4.0 0.00 0.43 0.09 82 1008.9
20260504171536 64 32 1.0 3.0 0.00 0.43 0.09 80 1008.9
20260504171106 64 40 1.0 3.0 0.00 0.43 0.09 80 1008.9
20260504170529 64 5 1.0 3.0 0.00 0.43 0.09 80 1009.0
20260504151101 65 76 1.0 6.0 0.00 0.51 0.09 82 1009.6
20260504150526 65 40 1.0 6.0 0.00 0.51 0.09 82 1009.6
20260504141027 65 92 4.0 8.0 0.00 0.94 0.09 79 1010.0
20260504140537 65 105 4.0 8.0 0.00 0.94 0.09 78 1010.0
20260504130602 64 80 2.0 4.0 0.00 0.94 0.09 85 1010.4
20260504110529 62 123 5.0 9.0 0.04 0.94 0.09 90 1011.0
20260504100537 59 139 0.0 1.0 0.00 0.91 0.08 93 1011.5
20260504081547 58 200 1.0 3.0 0.00 0.91 0.08 94 1011.3
20260504081030 58 191 1.0 4.0 0.00 0.91 0.08 94 1011.3
20260504080533 58 223 1.0 4.0 0.00 0.91 0.08 94 1011.3
20260504050545 55 207 2.0 3.0 0.04 1.10 0.06 96 1010.4
20260504045606 56 211 1.0 3.0 0.04 1.38 0.06 96 1010.4
20260504045032 56 221 1.0 2.0 0.04 1.38 0.06 96 1010.3
20260504044533 56 221 1.0 4.0 0.04 1.38 0.06 96 1010.3
20260504044033 56 216 1.0 4.0 0.08 1.38 0.06 96 1010.2
20260504043540 56 277 2.0 4.0 0.04 1.34 0.06 96 1010.3
20260504043037 56 217 1.0 4.0 0.04 1.34 0.06 96 1010.3
20260504042546 56 248 1.0 4.0 0.04 1.34 0.06 96 1010.3
20260504042045 56 263 1.0 6.0 0.04 1.34 0.06 96 1010.3
20260504041533 56 236 2.0 6.0 0.04 1.34 0.06 96 1010.2
20260504041030 56 227 2.0 5.0 0.04 1.34 0.06 96 1010.3
20260504040540 56 196 2.0 4.0 0.04 1.34 0.06 96 1010.3
20260504040028 56 210 1.0 4.0 0.04 1.50 0.06 96 1010.3
20260504035542 56 232 2.0 6.0 0.04 1.50 0.06 96 1010.3
20260504035038 56 227 2.0 6.0 0.04 1.50 0.06 96 1010.3
20260504034531 56 220 2.0 5.0 0.08 1.50 0.06 96 1010.3
20260504034030 56 227 2.0 6.0 0.04 1.46 0.05 96 1010.3
20260504033601 57 225 2.0 8.0 0.04 1.46 0.05 96 1010.4
20260504033101 57 219 2.0 8.0 0.16 1.46 0.05 96 1010.3
20260504032530 57 194 3.0 5.0 0.16 1.46 0.05 96 1010.4
20260504032038 57 219 2.0 7.0 0.16 1.46 0.05 95 1010.4
20260504031538 57 189 3.0 7.0 0.16 1.46 0.05 95 1010.4
20260504031035 57 221 3.0 5.0 0.20 1.46 0.05 96 1010.4
20260504030532 57 195 2.0 5.0 0.24 1.46 0.05 95 1010.4
20260504030032 57 224 3.0 5.0 0.24 1.46 0.05 96 1010.5
20260504025536 57 238 1.0 5.0 0.24 1.46 0.05 96 1010.5
20260504025041 57 214 2.0 5.0 0.24 1.46 0.05 96 1010.5
20260504024547 57 202 2.0 4.0 0.20 1.42 0.04 95 1010.6
20260504024050 57 218 2.0 4.0 0.20 1.42 0.04 95 1010.6
20260504023534 57 218 2.0 6.0 0.20 1.42 0.04 95 1010.6
20260504023036 57 213 3.0 7.0 0.08 1.30 0.02 95 1010.6
20260504022542 57 217 3.0 7.0 0.08 1.30 0.02 95 1010.6
20260504022045 57 227 3.0 7.0 0.08 1.30 0.02 95 1010.6
20260504021540 57 213 4.0 7.0 0.08 1.30 0.02 95 1010.5
20260504021031 57 232 2.0 8.0 0.00 1.22 0.00 95 1010.6
20260504020559 58 227 3.0 8.0 0.00 1.22 0.00 95 1010.6
20260504020101 58 243 3.0 8.0 0.00 1.22 0.00 94 1010.6
20260504015534 57 229 3.0 8.0 0.00 1.22 0.00 95 1010.5
20260504015039 57 225 3.0 6.0 0.00 1.22 0.00 95 1010.6
20260504014536 57 219 3.0 7.0 0.00 1.22 0.00 95 1010.6
20260504014035 57 223 2.0 7.0 0.00 1.22 0.00 95 1010.6
20260504013544 57 198 2.0 5.0 0.00 1.22 0.00 95 1010.5
20260504013053 57 224 2.0 5.0 0.00 1.22 0.00 95 1010.6
20260504012541 57 219 2.0 5.0 0.00 1.22 0.00 95 1010.6
20260504012103 57 225 2.0 5.0 0.00 1.22 0.00 95 1010.6
20260504011601 57 234 2.0 4.0 0.00 1.22 0.00 95 1010.6
20260504011035 57 199 1.0 4.0 0.00 1.22 0.00 95 1010.6
20260504010547 57 205 2.0 4.0 0.00 1.22 0.00 95 1010.6
20260504010036 57 215 2.0 4.0 0.00 1.22 0.00 95 1010.6
20260504005608 57 209 2.0 4.0 0.00 1.22 0.00 95 1010.7
20260504005031 57 208 2.0 4.0 0.00 1.22 0.00 95 1010.7
20260504004534 57 203 1.0 4.0 0.00 1.22 0.00 95 1010.8
20260504004033 57 192 2.0 4.0 0.00 1.22 0.00 95 1010.8
20260504003538 57 220 2.0 4.0 0.00 1.22 0.00 95 1010.9
20260504003102 57 209 1.0 4.0 0.00 1.22 0.00 95 1010.8
20260504002530 57 214 1.0 4.0 0.00 1.22 0.00 95 1010.9
20260504002056 57 205 1.0 4.0 0.00 1.22 0.00 95 1010.9
20260504001537 57 217 1.0 4.0 0.00 1.22 0.00 95 1010.9
20260504001037 57 191 1.0 4.0 0.00 1.22 0.00 95 1010.8
20260504000536 57 206 1.0 4.0 0.00 1.22 0.00 95 1010.7
20260504000029 57 193 2.0 6.0 0.00 1.22 0.24 95 1010.7
20260503235530 57 223 2.0 6.0 0.00 1.22 0.24 95 1010.8
20260503235029 57 175 1.0 3.0 0.00 1.22 0.24 96 1010.9
20260503234533 57 211 2.0 3.0 0.00 1.22 0.24 96 1010.9
20260503234038 57 213 2.0 3.0 0.00 1.22 0.24 96 1010.9
20260503233606 57 194 1.0 4.0 0.00 1.22 0.24 96 1011.0
20260503233044 57 191 1.0 4.0 0.00 1.22 0.24 96 1010.9
20260503232534 57 197 1.0 3.0 0.00 1.22 0.24 96 1011.0
20260503232039 57 173 1.0 3.0 0.00 1.22 0.24 96 1011.1
20260503231555 57 178 1.0 3.0 0.00 1.22 0.24 96 1011.1
20260503231029 57 188 1.0 3.0 0.00 1.22 0.24 96 1011.2
20260503230539 57 208 1.0 2.0 0.00 1.22 0.24 95 1011.2
20260503230029 57 212 1.0 2.0 0.00 1.22 0.24 95 1011.1
20260503225535 57 223 1.0 3.0 0.00 1.22 0.24 95 1011.0
20260503225032 57 223 1.0 3.0 0.00 1.22 0.24 95 1011.0
20260503224544 57 221 1.0 2.0 0.00 1.22 0.24 95 1010.9
20260503224045 56 197 1.0 2.0 0.00 1.22 0.24 95 1010.9
20260503223531 56 143 0.0 1.0 0.00 1.22 0.24 95 1010.8
20260503223035 56 143 0.0 1.0 0.00 1.22 0.24 95 1010.8
20260503222531 57 152 0.0 1.0 0.00 1.22 0.24 95 1010.7
20260503222034 57 152 0.0 2.0 0.00 1.22 0.24 95 1010.8
20260503221543 57 152 0.0 2.0 0.00 1.22 0.24 95 1010.8
20260503221045 57 138 1.0 3.0 0.00 1.22 0.24 95 1010.7
20260503220529 57 172 2.0 3.0 0.00 1.22 0.24 95 1010.8
20260503220045 57 188 0.0 2.0 0.00 1.22 0.24 95 1010.9
20260503215529 57 199 0.0 2.0 0.00 1.22 0.24 95 1011.0
20260503215035 57 219 0.0 2.0 0.00 1.22 0.24 95 1010.9
20260503214537 58 188 0.0 1.0 0.00 1.22 0.24 95 1010.9
20260503214102 58 198 0.0 1.0 0.00 1.22 0.24 95 1010.8
20260503213546 58 198 0.0 5.0 0.00 1.22 0.24 95 1010.8
20260503213052 58 154 2.0 5.0 0.00 1.22 0.24 95 1010.7